Regional Weather Roundup
Issued by NWS Cleveland, OH

Home | Current Version | Previous Version | Text Only | Print | Product List | Glossary Off
Versions: 1 2 3 4 5 6 7 8 9 10 11 12 13 14 15 16 17 18 19 20 21 22 23 24 25 26 27 28 29 30 31 32 33 34 35 36 37 38 39 40 41 42 43 44 45 46 47 48 49 50

000
ASUS41 KCLE 201510
RWRCLE
OHIO REGIONAL WEATHER ROUNDUP
NATIONAL WEATHER SERVICE WILMINGTON, OH
1100 AM EDT FRI OCT 20 2017

NOTE: "FAIR" INDICATES FEW OR NO CLOUDS BELOW 12,000 FEET WITH NO
SIGNIFICANT WEATHER AND/OR OBSTRUCTIONS TO VISIBILITY.

OHZ001>008-015>018-024>027-034-035-043-044-201600-
   NORTHWEST OHIO

CITY           SKY/WX    TMP DP  RH WIND       PRES   REMARKS
DEFIANCE       FAIR      62  40  44 S8        30.29S
FINDLAY        FAIR      64  37  36 SE8       30.29S
TOLEDO EXPRESS FAIR      62  40  44 VRB5      30.29S
TOLEDO EXEC    FAIR      62  41  46 S8        30.30S
LIMA           FAIR      64  45  49 S8        30.30S
$$

OHZ009>014-019>023-028>033-038-089-201600-
   NORTHEAST OHIO

CITY           SKY/WX    TMP DP  RH WIND       PRES   REMARKS
CLE-HOPKINS    FAIR      64  45  49 SE8       30.32F
CLE-LAKEFRONT  FAIR      63  46  54 SE7       30.29F
CUY CO. ARPT   MOSUNNY   64  45  48 SE9       30.31F
LORAIN-ELYRIA  FAIR      59  44  57 S6        30.32R
ASHTABULA      FAIR      61  46  57 S3        30.32S
AKRON-CANTON   FAIR      63  44  50 E6        30.33R
WOOSTER        FAIR      61  48  62 SE6       30.33S
MANSFIELD      FAIR      63  44  50 E8        30.32S
YOUNGSTOWN     FAIR      62  42  47 VRB3      30.32S
$$

OHZ042-051>053-060>062-070>072-077>081-201600-
  SOUTHWEST OHIO

CITY           SKY/WX    TMP DP  RH WIND       PRES   REMARKS
CINC-COVINGTON FAIR      65  56  72 SW5       30.32S
CINC-LUNKEN    FAIR      60  56  86 CALM      30.33F
HAMILTON       FAIR      62  56  80 CALM      30.33S
DAYTON         FAIR      62  55  77 SE3       30.33R
WRIGHT-PAT AFB SUNNY     61  54  76 CALM      30.32S
DAYTON GENERAL FAIR      62  53  72 CALM      30.32R
WILMINGTON     FAIR      65  55  70 CALM      30.32S
$$

OHZ036-037-039>041-045>050-054>059-063>069-073>076-082>088-201600-
  CENTRAL AND SOUTHEAST OHIO

CITY           SKY/WX    TMP DP  RH WIND       PRES   REMARKS
COLUMBUS       FAIR      59  51  75 CALM      30.32S
OSU AIRPORT    FAIR      61  50  67 CALM      30.32S
BOLTON FIELD   SUNNY     63  52  67 CALM        N/A
RICKENBACK AFB FAIR      57  53  84 CALM      30.32S
NEWARK         FAIR      60  48  64 SE3       30.32S
MARION         FAIR      62  38  40 S8        30.32R
LANCASTER      FAIR      62  52  69 CALM      30.33S
ZANESVILLE     FAIR      59  50  72 CALM      30.32F
NEW PHILLY     FAIR      59  51  75 CALM      30.34S
$$



USA.gov is the U.S. government's official web portal to all federal, state and local government web resources and services.